Location: Noverd
(38.0910°N, 121.6877°W)
Time: 06:29:58
(UTC+00:00)

Cosmos 2369 - Pass Details

Date: 13 February 2026
Orbit: 840 x 853 km, 71.0° (Epoch: 9 March)

Event Time Altitude Azimuth Distance (km) Brightness Sun altitude
Rises 13:55:01 0° 213° (SSW) 3,394 6.6 -13.2°
Reaches altitude 10° 13:57:30 10° 218° (SW) 2,460 5.8 -12.7°
Maximum altitude 14:03:02 55° 296° (WNW) 1,012 3.8 -11.6°
Drops below altitude 10° 14:08:35 10° 13° (NNE) 2,466 6.2 -10.5°
Sets 14:11:05 0° 18° (NNE) 3,403 7.0 -10.0°
